Simultaneous Nadir Overpasses (SNOs) Predictions

Prediction of SNOs between GOES-16 and AQUA Satellite Orbit:

Table of predicted SNOs for the next 14.0 days since TLE Epoch: 5/6/2023
Index Date Time (GOES-16) GOES-16 Lat,Lon AQUA Lat,Lon Distance(km) Time Diff (sec)
1 05/07/2023 18:41:44 0.02, -75.20 0.43, -73.18 229.90 80
2 05/08/2023 07:02:33 -0.02, -75.20 0.61, -78.22 342.98 80
3 05/10/2023 06:45:56 -0.01, -75.21 -0.12, -74.82 45.02 80
4 05/12/2023 06:31:58 -0.01, -75.23 -0.82, -71.41 433.83 80
5 05/12/2023 18:52:54 0.01, -75.23 -0.28, -76.48 142.43 80
6 05/14/2023 18:41:36 0.01, -75.25 0.48, -73.08 247.99 80
7 05/15/2023 07:02:24 -0.00, -75.26 0.59, -78.11 323.91 80
8 05/17/2023 06:45:45 -0.00, -75.30 -0.16, -74.71 67.77 80
9 05/19/2023 06:31:45 -0.01, -75.33 -0.89, -71.29 460.02 80
10 05/19/2023 18:52:40 0.00, -75.34 -0.23, -76.35 115.56 80
